FW9692 Weather Reports


Display with metric or nautical units.
time (UTC)temp
F
wind
direction
speed
MPH
gust
MPH
rain 1hr
in
rain 24hr
in
rain mn
in
humidity
%
barometer
mb
20260506084611 0 0.0 0.0 0.00 0.00 0.00 997.8
20260506083038 0 0.0 0.0 0.00 0.00 0.00 997.9
20260506081539 0 0.0 0.0 0.00 0.00 0.00 997.9
20260506073020 0 0.0 0.0 0.00 0.00 0.00 997.9
20260506071511 0 0.0 0.0 0.00 0.00 0.00 997.8
20260506061516 70 244 8.0 11.0 0.00 0.00 0.00 42 997.6
20260506044508 74 270 4.0 8.0 0.00 0.00 0.00 36 997.1
20260506043008 73 225 3.0 5.0 0.00 0.00 0.00 37 996.9
20260506041507 73 229 3.0 7.0 0.00 0.00 0.00 36 996.7
20260506040006 74 284 7.0 9.0 0.00 0.00 0.00 35 996.6
20260506034504 74 286 6.0 8.0 0.00 0.00 0.00 35 996.6
20260506033004 74 294 4.0 9.0 0.00 0.00 0.00 35 996.2
20260506031505 74 307 7.0 12.0 0.00 0.00 0.00 35 996.0
20260506030001 74 312 12.0 16.0 0.00 0.00 0.00 34 995.8
20260506024605 75 309 12.0 16.0 0.00 0.00 0.00 33 995.6
20260506023109 76 319 12.0 15.0 0.00 0.00 0.00 32 995.5
20260506021617 77 329 9.0 12.0 0.00 0.00 0.00 30 995.5
20260506020057 78 319 3.0 6.0 0.00 0.00 0.00 28 995.4
20260506014504 79 324 4.0 9.0 0.00 0.00 0.00 27 995.2
20260506013003 80 334 2.0 4.0 0.00 0.00 0.00 26 995.1
20260506011503 80 195 3.0 9.0 0.00 0.00 0.00 25 994.8
20260506010003 80 186 7.0 8.0 0.00 0.00 0.00 26 994.8
20260506004553 80 182 9.0 10.0 0.00 0.00 0.00 25 994.9
20260506003054 81 209 8.0 14.0 0.00 0.00 0.00 25 994.8
20260506001554 81 223 10.0 16.0 0.00 0.00 0.00 25 994.8
20260506000050 81 221 10.0 18.0 0.00 0.00 0.00 24 994.8
20260505234559 81 208 5.0 11.0 0.00 0.00 0.00 25 995.0
20260505233104 80 280 7.0 14.0 0.00 0.00 0.00 25 995.1
20260505231611 80 259 16.0 20.0 0.00 0.00 0.00 25 995.3
20260505230055 79 232 10.0 15.0 0.00 0.00 0.00 25 995.4
20260505224544 79 259 14.0 22.0 0.00 0.00 0.00 26 995.6
20260505223043 79 250 14.0 20.0 0.00 0.00 0.00 26 996.0
20260505221545 78 267 19.0 25.0 0.00 0.00 0.00 26 995.9
20260505220045 77 266 20.0 26.0 0.00 0.00 0.00 26 996.1
20260505214556 77 288 16.0 26.0 0.00 0.00 0.00 26 996.5
20260505213047 77 261 22.0 31.0 0.00 0.00 0.00 25 996.6
20260505211546 77 292 25.0 33.0 0.00 0.00 0.00 25 996.9
20260505210047 78 284 27.0 32.0 0.00 0.00 0.00 24 996.7
20260505204556 79 279 20.0 29.0 0.00 0.00 0.00 24 997.0
20260505203114 79 280 21.0 33.0 0.00 0.00 0.00 24 997.0
20260505201600 79 270 18.0 31.0 0.00 0.00 0.00 26 996.9
20260505200054 78 279 21.0 29.0 0.00 0.00 0.00 26 997.0
20260505194557 78 271 21.0 27.0 0.00 0.00 0.00 27 997.2
20260505193056 77 288 20.0 29.0 0.00 0.00 0.00 28 997.1
20260505191608 77 290 22.0 28.0 0.00 0.00 0.00 27 997.1
20260505190053 76 252 21.0 27.0 0.00 0.00 0.00 30 997.2
20260505184552 76 259 22.0 33.0 0.00 0.00 0.00 30 997.2
20260505183051 76 259 23.0 34.0 0.00 0.00 0.00 30 997.4
20260505181552 76 279 25.0 34.0 0.00 0.00 0.00 31 997.7
20260505180053 77 269 21.0 31.0 0.00 0.00 0.00 31 997.9
20260505174552 76 302 19.0 26.0 0.00 0.00 0.00 31 998.0
20260505173055 76 286 19.0 28.0 0.00 0.00 0.00 31 998.0
20260505171550 75 291 20.0 26.0 0.00 0.00 0.00 31 998.0
20260505170104 75 317 21.0 30.0 0.00 0.00 0.00 30 998.1
20260505164547 75 286 24.0 31.0 0.00 0.00 0.00 31 997.9
20260505163044 75 275 23.0 28.0 0.00 0.00 0.00 29 997.9
20260505161542 75 290 25.0 30.0 0.00 0.00 0.00 29 997.8
20260505153036 73 280 20.0 29.0 0.00 0.00 0.00 29 997.4
20260505151549 73 277 24.0 31.0 0.00 0.00 0.00 29 997.2
20260505124510 69 230 14.0 16.0 0.00 0.00 0.00 33 996.1
20260505123004 68 229 13.0 15.0 0.00 0.00 0.00 33 995.9
20260505121503 69 227 13.0 15.0 0.00 0.00 0.00 32 995.8
20260505120100 69 217 13.0 16.0 0.00 0.00 0.00 30 995.8
20260505114558 69 212 12.0 14.0 0.00 0.00 0.00 31 995.5
20260505113057 70 200 10.0 11.0 0.00 0.00 0.00 30 995.4
20260505111559 71 205 11.0 12.0 0.00 0.00 0.00 27 995.4
20260505101601 69 252 10.0 14.0 0.00 0.00 0.00 32 995.2
20260505094546 71 250 12.0 14.0 0.00 0.00 0.00 31 995.2
20260505093046 71 252 13.0 15.0 0.00 0.00 0.00 31 995.3
20260505091545 71 232 13.0 17.0 0.00 0.00 0.00 32 995.3
20260505090055 72 245 14.0 17.0 0.00 0.00 0.00 31 995.2